Location: Eaton
(41.3139°N, 82.0207°W)
Time: 08:36:07
(UTC+00:00)

CENTAUR R/B - Pass Details

Date: 17 June 2021
Orbit: 740 x 1447 km, 63.4° (Epoch: 17 July)

Event Time Altitude Azimuth Distance (km) Brightness Sun altitude
Rises 01:25:50 0° 208° (SSW) 3,319 5.2 -4.3°
Reaches altitude 10° 01:28:06 10° 207° (SSW) 2,456 4.5 -4.6°
Maximum altitude 01:33:46 77° 121° (ESE) 968 2.4 -5.5°
Drops below altitude 10° 01:40:35 10° 37° (NE) 2,927 5.0 -6.5°
Sets 01:43:29 0° 36° (NE) 4,001 5.7 -6.9°
